Cleveland, TX

12:12 AM CDT on June 25, 2017 (GMT -0500)
Cleveland

Weather History for K6R3 - September, 2013

Change the Weather History Date:

Tuesday, September 3, 2013

  Actual Average (KCXO) Record (KCXO)
Temperature  
Mean Temperature 88 °F -  
Max Temperature 99 °F 89 °F 107 °F (2000)
Min Temperature 77 °F 69 °F 68 °F (2006)
Cooling Degree Days 22    
Growing Degree Days 38 (Base 50)    
Moisture  
Dew Point 73 °F    
Average Humidity 73    
Maximum Humidity 92    
Minimum Humidity 36    
Precipitation  
Precipitation 0.00 in - - ()
Sea Level Pressure  
Sea Level Pressure 29.94 in    
Wind  
Wind Speed 2 mph (SW)    
Max Wind Speed 13 mph    
Max Gust Speed 25 mph    
Visibility 8 miles    
Events Rain , Thunderstorm    
Averages and records for this station are not official NWS values.
T = Trace of Precipitation, MM = Missing Value Source: NWS Daily Summary

Daily Weather History Graph

Daily Weather History Graph

Search for Another Location

Airport or City:

Trip Planner

Search our weather history database for the weather conditions in past years. The results will help you decide how hot, cold, wet, or windy it might be!

Date:

Astronomy

Sep. 03, 2013 Rise Set
Actual Time 6:58 AM CDT 7:40 PM CDT
Civil Twilight 6:33 AM CDT 8:04 PM CDT
Nautical Twilight 6:04 AM CDT 8:32 PM CDT
Astronomical Twilight 5:35 AM CDT 9:02 PM CDT
Moon 5:16 AM CDT (9/3) 6:26 PM CDT (9/3)
Length of Visible Light 13h 30m
Length of Day
12h 42m
Waning Crescent, 3% of the Moon is Illuminated
Sep 3
Waning Crescent
Sep 5
New
Sep 12
First Quarter
Sep 19
Full
Sep 26
Last Quarter

Hourly Weather History & Observations

Time (CDT) Temp. Heat Index Dew Point Humidity Pressure Visibility Wind Dir Wind Speed Gust Speed Precip Events Conditions
12:15 AM 78.8 °F - 74.3 °F 86% 29.94 in 7.0 mi Calm Calm - N/A   Scattered Clouds
12:35 AM 78.4 °F - 74.3 °F 87% 29.94 in 7.0 mi Calm Calm - N/A   Scattered Clouds
12:55 AM 78.1 °F - 74.3 °F 88% 29.94 in 10.0 mi South 3.5 mph - N/A   Clear
1:15 AM 77.9 °F - 74.1 °F 88% 29.95 in 10.0 mi South 3.5 mph - N/A   Clear
1:35 AM 77.9 °F - 74.3 °F 89% 29.95 in 7.0 mi Calm Calm - N/A   Clear
1:55 AM 77.4 °F - 73.9 °F 89% 29.95 in 7.0 mi Calm Calm - N/A   Clear
2:15 AM 77.4 °F - 74.1 °F 90% 29.94 in 10.0 mi Calm Calm - N/A   Scattered Clouds
2:35 AM 77.2 °F - 74.3 °F 91% 29.94 in 10.0 mi SSW 3.5 mph - N/A   Mostly Cloudy
2:55 AM 78.4 °F - 74.5 °F 88% 29.94 in 7.0 mi Calm Calm - N/A   Overcast
3:15 AM 78.8 °F - 74.7 °F 87% 29.94 in 10.0 mi Calm Calm - N/A   Mostly Cloudy
3:35 AM 79.0 °F - 74.7 °F 87% 29.94 in 7.0 mi SW 3.5 mph - N/A   Scattered Clouds
3:55 AM 79.3 °F - 74.8 °F 86% 29.94 in 7.0 mi WSW 3.5 mph - N/A   Clear
4:15 AM 79.7 °F - 75.0 °F 86% 29.93 in 10.0 mi WSW 3.5 mph - N/A   Clear
4:35 AM 79.7 °F - 75.2 °F 86% 29.94 in 10.0 mi West 4.6 mph - N/A   Clear
4:55 AM 79.3 °F - 75.2 °F 87% 29.94 in 7.0 mi Calm Calm - N/A   Scattered Clouds
5:15 AM 79.2 °F - 75.2 °F 88% 29.94 in 10.0 mi Calm Calm - N/A   Scattered Clouds
5:35 AM 79.0 °F - 75.2 °F 88% 29.95 in 7.0 mi Calm Calm - N/A   Clear
5:55 AM 78.8 °F - 75.2 °F 89% 29.95 in 7.0 mi Calm Calm - N/A   Clear
6:15 AM 78.8 °F - 75.2 °F 89% 29.95 in 10.0 mi Calm Calm - N/A   Clear
6:35 AM 78.8 °F - 75.2 °F 89% 29.95 in 7.0 mi Calm Calm - N/A   Clear
6:55 AM 78.8 °F - 75.0 °F 88% 29.96 in 7.0 mi Calm Calm - N/A   Clear
7:15 AM 78.3 °F - 74.8 °F 89% 29.96 in 7.0 mi Calm Calm - N/A   Clear
7:35 AM 77.4 °F - 74.7 °F 91% 29.97 in 7.0 mi Calm Calm - N/A   Clear
7:55 AM 77.4 °F - 74.8 °F 92% 29.97 in 7.0 mi Calm Calm - N/A   Clear
8:15 AM 78.6 °F - 75.4 °F 90% 29.97 in 7.0 mi Calm Calm - N/A   Clear
8:35 AM 81.0 °F 87.1 °F 75.7 °F 84% 29.97 in 7.0 mi Calm Calm - N/A   Clear
8:55 AM 82.8 °F 90.7 °F 75.9 °F 80% 29.98 in 7.0 mi Calm Calm - N/A   Clear
9:15 AM 84.4 °F 93.5 °F 75.9 °F 76% 29.98 in 7.0 mi WSW 4.6 mph - N/A   Clear
9:35 AM 86.7 °F 96.9 °F 75.7 °F 70% 29.99 in 7.0 mi West 3.5 mph - N/A   Scattered Clouds
9:55 AM 87.4 °F 95.8 °F 74.1 °F 64% 29.99 in 7.0 mi West 4.6 mph - N/A   Scattered Clouds
10:15 AM 88.9 °F 98.6 °F 74.8 °F 63% 29.99 in 10.0 mi Calm Calm - N/A   Clear
10:35 AM 89.6 °F 98.2 °F 73.4 °F 59% 29.99 in 7.0 mi NW 3.5 mph - N/A   Clear
10:55 AM 92.1 °F 100.5 °F 72.7 °F 53% 29.99 in 7.0 mi West 4.6 mph - N/A   Mostly Cloudy
11:15 AM 92.7 °F 101.1 °F 72.5 °F 52% 29.99 in 10.0 mi Calm Calm - N/A   Mostly Cloudy
11:35 AM 93.2 °F 101.1 °F 72.0 °F 50% 29.99 in 7.0 mi Calm Calm - N/A   Overcast
11:55 AM 92.5 °F 100.1 °F 72.0 °F 51% 29.99 in 10.0 mi Calm Calm - N/A   Mostly Cloudy
12:15 PM 94.3 °F 101.6 °F 71.4 °F 47% 29.98 in 7.0 mi Calm Calm - N/A   Scattered Clouds
12:35 PM 97.3 °F 104.2 °F 70.3 °F 41% 29.97 in 7.0 mi Calm Calm - N/A   Clear
12:55 PM 96.6 °F 102.7 °F 69.1 °F 41% 29.96 in 7.0 mi South 5.8 mph - N/A   Scattered Clouds
1:15 PM 96.8 °F 100.7 °F 66.4 °F 37% 29.96 in 10.0 mi Calm Calm - N/A Rain Light Rain
1:35 PM 98.4 °F 103.1 °F 67.3 °F 36% 29.95 in 7.0 mi SW 5.8 mph - N/A   Scattered Clouds
1:55 PM 97.3 °F 102.9 °F 68.9 °F 39% 29.94 in 7.0 mi Calm Calm - N/A   Scattered Clouds
2:15 PM 93.9 °F 100.3 °F 70.3 °F 46% 29.93 in 7.0 mi WNW 11.5 mph 16.1 mph N/A Thunderstorm Mostly Cloudy
2:35 PM 93.2 °F 101.1 °F 72.1 °F 50% 29.93 in 7.0 mi West 10.4 mph - N/A   Scattered Clouds
2:55 PM 93.6 °F 97.4 °F 67.6 °F 42% 29.92 in 7.0 mi WSW 9.2 mph 16.1 mph N/A Thunderstorm Clear
3:15 PM 92.3 °F 98.1 °F 70.2 °F 48% 29.92 in 10.0 mi SW 12.7 mph 25.3 mph N/A Thunderstorm Clear
3:35 PM 88.5 °F 95.3 °F 72.1 °F 58% 29.92 in 10.0 mi South 6.9 mph - N/A Thunderstorm Mostly Cloudy
3:55 PM 86.9 °F 92.1 °F 70.3 °F 58% 29.91 in 7.0 mi South 6.9 mph - N/A   Mostly Cloudy
4:15 PM 86.0 °F 91.8 °F 71.8 °F 62% 29.90 in 10.0 mi SSE 3.5 mph - N/A Rain , Thunderstorm Light Thunderstorms and Rain
4:35 PM 86.0 °F 93.0 °F 72.9 °F 65% 29.89 in 7.0 mi ESE 3.5 mph - N/A   Clear
4:55 PM 86.0 °F 93.0 °F 73.2 °F 65% 29.89 in 7.0 mi South 4.6 mph - N/A Thunderstorm Clear
5:15 PM 87.8 °F 93.8 °F 71.6 °F 58% 29.89 in 7.0 mi Calm Calm - N/A   Clear
5:35 PM 89.8 °F 96.5 °F 71.6 °F 55% 29.88 in 7.0 mi Calm Calm - N/A   Scattered Clouds
5:55 PM 89.4 °F 96.8 °F 72.1 °F 57% 29.89 in 7.0 mi Calm Calm - N/A   Scattered Clouds
6:15 PM 87.4 °F 95.3 °F 73.4 °F 63% 29.90 in 7.0 mi Calm Calm - N/A   Mostly Cloudy
6:35 PM 87.3 °F 94.5 °F 72.7 °F 62% 29.90 in 7.0 mi Calm Calm - N/A   Mostly Cloudy
6:55 PM 84.6 °F 92.4 °F 74.5 °F 72% 29.90 in 7.0 mi Calm Calm - N/A   Mostly Cloudy
7:15 PM 83.1 °F 89.5 °F 73.8 °F 73% 29.91 in 7.0 mi Calm Calm - N/A   Scattered Clouds
7:35 PM 81.9 °F 87.7 °F 74.1 °F 77% 29.91 in 7.0 mi Calm Calm - N/A   Clear
7:55 PM 81.3 °F 86.5 °F 73.6 °F 77% 29.90 in 7.0 mi Calm Calm - N/A   Clear
8:15 PM 80.2 °F 84.7 °F 73.4 °F 80% 29.91 in 7.0 mi Calm Calm - N/A   Clear
8:35 PM 79.5 °F - 73.4 °F 81% 29.91 in 7.0 mi Calm Calm - N/A   Clear
8:55 PM 78.8 °F - 73.6 °F 84% 29.92 in 7.0 mi Calm Calm - N/A   Clear
9:15 PM 78.4 °F - 74.3 °F 87% 29.93 in 10.0 mi Calm Calm - N/A   Clear
9:35 PM 77.9 °F - 74.1 °F 88% 29.93 in 7.0 mi Calm Calm - N/A   Clear
9:55 PM 78.6 °F - 73.6 °F 84% 29.94 in 7.0 mi SSE 3.5 mph - N/A   Clear
10:15 PM 78.3 °F - 73.6 °F 85% 29.94 in 5.0 mi Calm Calm - N/A   Clear
10:35 PM 77.7 °F - 73.9 °F 88% 29.94 in 7.0 mi Calm Calm - N/A   Clear
10:55 PM 77.2 °F - 74.1 °F 90% 29.95 in 7.0 mi Calm Calm - N/A   Clear
11:15 PM 77.0 °F - 74.1 °F 91% 29.95 in 7.0 mi Calm Calm - N/A   Clear
11:35 PM 77.2 °F - 74.3 °F 91% 29.95 in 10.0 mi Calm Calm - N/A   Clear
11:55 PM 77.0 °F - 74.3 °F 91% 29.96 in 7.0 mi Calm Calm - N/A   Scattered Clouds